Location: Unspecified
(0.0000°N, 0.0000°E)
Time: 14:36:32
(UTC+00:00)

STARLINK-34853 - Pass Details

Date: 20 February 2026
Orbit: 474 x 476 km, 53.2° (Epoch: 14 March)

Event Time Altitude Azimuth Distance (km) Brightness Sun altitude
Rises 19:29:10 0° 204° (SSW) 2,518 6.5 -18.5°
Reaches altitude 10° 19:31:23 10° 197° (SSW) 1,636 5.4 -19.1°
Enters shadow 19:34:28 41° 146° (SE) 695 2.9 -19.8°
